This demonstration page uses our WeatherBlox Daily Observations layout. Learn more.

Left ArrowRight Arrow

39.08367, -84.50855

Hourly Observations for January 5, 2018

Temp ( °F °C ) Dew Point ( °F °C ) Humidity (%) Winds ( mph kmh ) Pressure ( in mb ) Visibility ( mi km ) Precip ( " mm )
12:53 am 00:53 Mostly Clear 7 -13.9 -1 -18.3 70 70 WNW 10 17 30.32 1027 10 16.0934 0 0
1:53 am 01:53 Cloudy 8 -13.3 -1 -18.3 66 66 W 9 15 30.32 1027 10 16.0934 0 0
2:53 am 02:53 Cloudy 8 -13.3 -1 -18.3 66 66 NW 6 9 30.34 1027 10 16.0934 0 0
3:53 am 03:53 Cloudy 7 -13.9 -2 -18.9 66 66 WNW 9 15 30.36 1028 10 16.0934 0 0
4:53 am 04:53 Cloudy 6 -14.4 -2 -18.9 69 69 WSW 8 13 30.36 1028 10 16.0934 0 0
5:53 am 05:53 Clear 4 -15.6 -2 -18.9 76 76 W 7 11 30.37 1028 10 16.0934 0 0
6:53 am 06:53 Clear 3 -16.1 -3 -19.4 76 76 WSW 7 11 30.39 1029 10 16.0934 0 0
7:53 am 07:53 Clear 3 -16.1 -3 -19.4 76 76 W 3 6 30.4 1030 10 16.0934 0 0
8:53 am 08:53 Sunny 4 -15.6 -1 -18.3 80 80 SW 7 11 30.42 1030 10 16.0934 0 0
9:53 am 09:53 Mostly Sunny 6 -14.4 0 -17.8 76 76 WSW 7 11 30.44 1031 10 16.0934 0 0
10:53 am 10:53 Sunny 9 -12.8 0 -17.8 66 66 SW 6 9 30.45 1031 10 16.0934 0 0
11:53 am 11:53 Sunny 13 -10.6 1 -17.2 59 59 WSW 9 15 30.44 1031 10 16.0934 0 0
12:53 pm 12:53 Sunny 14 -10 1 -17.2 56 56 WSW 7 11 30.42 1030 10 16.0934 0 0
1:53 pm 13:53 Sunny 17 -8.3 0 -17.8 47 47 VRB 7 11 30.4 1030 10 16.0934 0 0
2:53 pm 14:53 Sunny 17 -8.3 -2 -18.9 43 43 VRB 6 9 30.41 1030 10 16.0934 0 0
3:53 pm 15:53 Sunny 17 -8.3 -2 -18.9 43 43 W 10 17 30.42 1030 10 16.0934 0 0
4:53 pm 16:53 Sunny 15 -9.4 -2 -18.9 46 46 W 10 17 30.45 1031 10 16.0934 0 0
5:53 pm 17:53 Clear 12 -11.1 -2 -18.9 53 53 W 9 15 30.46 1032 10 16.0934 0 0
6:53 pm 18:53 Clear 11 -11.7 -3 -19.4 53 53 W 9 15 30.48 1032 10 16.0934 0 0
7:53 pm 19:53 Clear 11 -11.7 -2 -18.9 55 55 NW 7 11 30.5 1033 10 16.0934 0 0
8:53 pm 20:53 Clear 10 -12.2 -3 -19.4 55 55 WNW 5 7 30.51 1033 10 16.0934 0 0
9:53 pm 21:53 Clear 9 -12.8 -3 -19.4 58 58 N 3 6 30.51 1033 10 16.0934 0 0
10:53 pm 22:53 Clear 7 -13.9 -4 -20 60 60 N 3 6 30.52 1034 10 16.0934 0 0
11:53 pm 23:53 Clear 7 -13.9 -4 -20 60 60 NNW 3 6 30.54 1034 10 16.0934 0 0

Powered by AerisWeather